Regional Weather Roundup
Issued by NWS

Home | Current Version | Previous Version | Graphics & Text | Print | Product List | Glossary On
Versions: 1 2 3 4 5 6 7 8 9 10 11 12 13 14 15 16 17 18 19 20 21 22 23 24 25 26 27 28 29 30 31 32 33 34 35 36 37 38 39 40 41 42 43 44 45 46 47 48 49 50
000
ASUS43 KFSD 270802
RWRSD

WEATHER ROUNDUP FOR SOUTH DAKOTA
NATIONAL WEATHER SERVICE SIOUX FALLS SD
300 AM CDT SUN MAY 27 2018

NOTE: "FAIR" INDICATES FEW OR NO CLOUDS BELOW 12,000 FEET WITH NO
SIGNIFICANT WEATHER AND/OR OBSTRUCTIONS TO VISIBILITY.


SDZ001>005-009-010-012>017-270900-
NORTHWEST AND NORTH CENTRAL SOUTH DAKOTA

CITY           SKY/WX    TMP DP  RH WIND       PRES   REMARKS
BUFFALO          N/A     63  58  83 W9        29.65R
FAITH            N/A     69  64  84 SE14      29.66S
MOBRIDGE       MOCLDY    76  59  55 SE9       29.66F
$$

SDZ012>016-024>037-041>051-057-063-072>074-270900-
SOUTHWEST AND SOUTH CENTRAL SOUTH DAKOTA

CITY           SKY/WX    TMP DP  RH WIND       PRES   REMARKS
RAPID CTY ARPT CLOUDY    64  57  78 S8        29.69F
PIERRE         PTCLDY    72  60  66 SE12      29.66F
CUSTER         CLOUDY    64  43  46 CALM      29.86F
ELLSWORTH AFB  CLOUDY    69  56  63 S7        29.68F
PHILIP         MOCLDY    72  58  61 VRB6      29.65F
PINE RIDGE     CLOUDY    79  46  31 S23G38    29.71F
SPEARFISH      FAIR      70  46  43 NW15      29.73R
WINNER         FAIR      76  59  55 S15       29.72F
$$

SDZ004>011-016>023-039-040-270900-
NORTHEAST SOUTH DAKOTA

CITY           SKY/WX    TMP DP  RH WIND       PRES   REMARKS
ABERDEEN       PTCLDY    68  57  68 SE6       29.70F
WATERTOWN      CLOUDY    69  53  56 SE5       29.77F
$$

SDZ017-020-022-023-036>040-048>070-270900-
SOUTHEAST SOUTH DAKOTA

CITY           SKY/WX    TMP DP  RH WIND       PRES   REMARKS
SIOUX FALLS    CLEAR     63  57  81 NE6       29.77F
HURON          MOCLDY    73  57  57 SE10      29.72F
CHAMBERLAIN    PTCLDY    72  60  65 SE8       29.72F
MITCHELL       PTCLDY    70  59  68 SE8       29.74S
YANKTON        CLEAR     73  58  59 E7        29.76F
$$

ABBREVIATIONS USED IN REMARKS
   TC - TEMPERATURE IN CELSIUS
  WCI - WIND CHILL INDEX
   HX - HEAT INDEX
  VSB - VISIBILITY





USA.gov is the U.S. government's official web portal to all federal, state and local government web resources and services.